Regional Weather Roundup
Issued by NWS

Home | Current Version | Previous Version | Graphics & Text | Print | Product List | Glossary On
Versions: 1 2 3 4 5 6 7 8 9 10 11 12 13 14 15 16 17 18 19 20 21 22 23 24 25 26 27 28 29 30 31 32 33 34 35 36 37 38 39 40 41 42 43 44 45 46 47 48 49 50
000
ASUS43 KLOT 241004
RWRIL

ILLINOIS REGIONAL WEATHER ROUNDUP
NATIONAL WEATHER SERVICE CHICAGO/ROMEOVILLE IL
500 AM CDT SUN SEP 24 2017

NOTE: "FAIR" INDICATES FEW OR NO CLOUDS BELOW 12,000 FEET WITH NO
SIGNIFICANT WEATHER AND/OR OBSTRUCTIONS TO VISIBILITY.

* THESE STATIONS ARE NOT UNDER NWS QUALITY CONTROL. THEY ALSO MAY NOT
  REPORT WEATHER SUCH AS PRECIPITATION OR FOG.

ILZ001-002-007-009-015-016-024-241100-
NORTHWEST ILLINOIS

CITY           SKY/WX    TMP DP  RH WIND       PRES   REMARKS
MOLINE         CLEAR     68  61  78 E3        30.03R
STERLING*      CLEAR     65  63  93 E3        30.05S
SAVANNA*       CLEAR     65  63  94 CALM      30.05R
$$

ILZ003-004-008-010-011-017-018-241100-
NORTH CENTRAL ILLINOIS

CITY           SKY/WX    TMP DP  RH WIND       PRES   REMARKS
ROCKFORD       CLEAR     68  64  87 CALM      30.07S
FREEPORT*      CLEAR     65  62  91 SE6       30.07S
ROCHELLE*      CLEAR     64  62  94 CALM      30.06S
DE KALB*       CLEAR     69  65  85 SE9       30.08S
PERU*          CLEAR     70  62  77 SE6       30.07R
$$

ILZ005-006-012>014-019>023-241100-
NORTHEAST ILLINOIS

CITY           SKY/WX    TMP DP  RH WIND       PRES   REMARKS
CHICAGO-OHARE  CLEAR     71  64  78 CALM      30.07S
CHICAGO-MIDWAY CLEAR     76  65  68 S3        30.07S
AURORA         CLEAR     69  65  86 SE5       30.07F
LANSING*       CLEAR     66  65  98 CALM      30.09S
JOLIET*        CLEAR     67  65  95 CALM      30.08S
WAUKEGAN       FOG       65  65 100 CALM      30.07S VSB 1/2
DUPAGE AIRPORT CLEAR     66  66 100 CALM      30.07S FOG
KANKAKEE*      CLEAR     65  64  97 CALM      30.09S
WHEELING       CLEAR     68  66  93 CALM      30.08F
MORRIS*        CLEAR     69  65  88 SE3       30.06S
ROMEOVILLE*    CLEAR     67  64  88 S5        30.08S
NORTHERLY ISL    N/A     70  67  90 NE1         N/A
$$

LMZ740>746-241100-
SOUTHERN LAKE MICHIGAN

STATION/POSITION SKY/WX   TEMP    WIND        PRES    VSBY  WAVE
                          AIR SEA DIR/SP/G                  HT/PER
                          (F)     (DEG/KT/KT) (MB)    (MI)  (FT/S)
SOUTHERN BUOY              73 70  120/  8/  8 1018.6          0
WILMETTE HARBOR            72 72  170/  2/  4   N/A           0
HARRISON CRIB              75     150/  8/  8   N/A
BURNHAM HARBOR             70                   N/A
CALUMET HARBOR             74     150/  1/  2 1017.9R
BURNS HARBOR               74     140/  7/ 10 1019.0S
MICHIGAN CITY              72     120/ 10/ 11   N/A
MICHIGAN CITY 6N           72 72  150/  8/ 10   N/A           1
ST. JOSEPH                 72 72  150/  8/ 10 1018.9R         1
$$

ILZ025>027-034>036-040-047-049-050-058-095>099-241100-
WEST-CENTRAL ILLINOIS

CITY           SKY/WX    TMP DP  RH WIND       PRES   REMARKS
QUINCY         CLEAR     69  61  75 E6        30.02R
GALESBURG*     CLEAR     64  61  88 CALM      30.05S
MACOMB*        CLEAR     60  58  93 CALM      30.06R
JACKSONVILLE*  CLEAR     63  59  86 SE6       30.04R
PITTSFIELD*    CLEAR     65  63  91 CALM      30.04R
$$

ILZ028>032-037-038-041>044-048-051>054-059>061-241100-
CENTRAL ILLINOIS

CITY           SKY/WX    TMP DP  RH WIND       PRES   REMARKS
PONTIAC        CLEAR     63  62  98 SE5       30.09R
BLOOMINGTON    CLEAR     67  61  81 S6        30.08
DECATUR        CLEAR     62  60  93 CALM      30.07R
PEORIA         CLEAR     68  62  81 SE3       30.05S
LACON*         CLEAR     68  62  81 SE3       30.05S
LINCOLN*       CLEAR     64  61  91 CALM      30.06R
SPRINGFIELD    CLEAR     64  60  87 E5        30.05R
TAYLORVILLE    CLEAR     67  61  81 SE5       30.05S
$$

ILZ033-039-045-046-055>057-062-063-241100-
EAST-CENTRAL ILLINOIS

CITY           SKY/WX    TMP DP  RH WIND       PRES   REMARKS
RANTOUL*       CLEAR     67  64  87 CALM      30.09R
MATTOON        CLEAR     66  64  93 S3        30.06S
PARIS*         CLEAR     61  60  99 E3        30.09R
$$

ILZ079-100>102-241100-
SOUTHWEST ILLINOIS

CITY           SKY/WX    TMP DP  RH WIND       PRES   REMARKS
ALTON          CLEAR     64  62  93 CALM      30.04S
BELLEVILLE     CLEAR     65  62  90 CALM      30.02
CAHOKIA*       CLEAR     67  61  81 CALM      30.02S
SPARTA*        CLEAR     67  63  86 SE3       30.04S
$$

ILZ064>066-069>071-074>076-080>082-084>086-088>090-092>094-241100-
SOUTH-CENTRAL ILLINOIS

CITY           SKY/WX    TMP DP  RH WIND       PRES   REMARKS
CARBONDALE     CLEAR     65  65 100 CALM      30.03R FOG
CAIRO*         CLEAR     67  67  99 CALM      30.02R
EFFINGHAM*     CLEAR     62  61  99 CALM      30.07S
MARION         CLEAR     66  66 100 CALM      30.04S
MT. VERNON       N/A     63  61  93 CALM      30.05R
CENTRALIA*     PTCLDY    63  61  95 CALM      30.04S
SALEM*         CLEAR     65  61  86 CALM      30.05S
METROPOLIS*    CLEAR     66  65  96 CALM      30.03S FOG
$$

ILZ067-068-072-073-078-083-087-091-241100-
SOUTHEAST ILLINOIS

CITY           SKY/WX    TMP DP  RH WIND       PRES   REMARKS
LAWRENCEVILLE  CLEAR     65  64  97 NE6       30.06S
FLORA*         CLEAR     66  64  93 CALM      30.06R
FAIRFIELD*     CLEAR     64  62  93 CALM      30.04S
HARRISBURG*    CLEAR     64  63  94 CALM      30.04S
ROBINSON*      FOG       58  58 100 CALM      30.08R VSB 3/4
CARMI*         CLEAR     62  62 100 CALM      30.04R FOG
$$

ABBREVIATIONS USED IN REMARKS
   TC - TEMPERATURE IN CELSIUS
  WCI - WIND CHILL INDEX
   HX - HEAT INDEX
  VSB - VISIBILITY
$$





USA.gov is the U.S. government's official web portal to all federal, state and local government web resources and services.